Location: Tamazert
(32.6352°N, 5.2072°W)
Time: 20:51:09
(UTC+00:00)

Transit 2A Rocket - Pass Details

Date: 03 October 2022
Orbit: 589 x 911 km, 66.7° (Epoch: 28 November)

Event Time Altitude Azimuth Distance (km) Brightness Sun altitude
Rises 05:20:56 0° 200° (SSW) 2,883 7.8 -12.5°
Reaches altitude 10° 05:23:13 10° 199° (SSW) 1,951 6.9 -12.0°
Maximum altitude 05:27:33 74° 115° (ESE) 618 4.7 -11.1°
Drops below altitude 10° 05:31:48 10° 30° (NNE) 1,918 7.5 -10.2°
Sets 05:34:03 0° 28° (NNE) 2,829 8.4 -9.7°
